Details From SKMD - Medellin Olaya Herrera
To SKCG - RAFAEL NUNEZ
Flight Number -
Tags generated
Created
Modified
Stats Distance 254 nm / 470 km
Max Altitude 33,300 ft / 10,150 m
Waypoints 4
Social Downloads 1
Likes 0
Share

Download

Looking for another format? Having issues loading an existing format? Contact us
Advertisement - Login to hide

Notes

Basic altitude profile: - Ascent Rate: 2500ft/min - Ascent Speed: 250kts - Cruise Altitude: 34000ft - Cruise Speed: 420kts - Descent Rate: 1500ft/min - Descent Speed: 250kts Options: - Use NATs: yes - Use PACOTS: yes - Use low airways: yes - Use high airways: yes

Route

SKMD BUTAL UG438 CTG SKCG

ID Type Via Altitude (ft/m) Position (lat/lon) Dist (leg/tot) Name
O SKMD APT - 0 / 0 6.21996 / -75.59052 - / 0 nm Medellin Olaya Herrera
BUTAL FIX - 33,300 / 10,150 7.85361 / -75.45722 98 / 98 nm
CTG VOR UG438 (AWY-HI) 24,500 / 7,468 10.20836 / -75.50608 141 / 239 nm CARTAGENA VOR-DME
O SKCG APT - 0 / 0 10.44238 / -75.51296 14 / 253 nm RAFAEL NUNEZ

Altitude Profile

Advertisement - Login to hide

Weather


0- 5 10 15 20 25 30 35+ Temperature / °C

Clouds and Precipitation
Forecast for 2020-05-26 18:00 UTC. Updated 41 minutes ago

Ground ~20,000 ft ~40,000 ft Winds

SKMD

Details ICAO SKMD (EOH)
Name Medellin Olaya Herrera
Region Colombia
Timezone America/Bogota (UTC-5.0)
Stats Elevation 4,940 ft / 1,506 m (AMSL)
Location 6.219960° -75.590500°
Runways 1
Magnetic Variation 6.879° W

METAR

SKMD 261600Z 36007KT 9999 SCT035 SCT080 29/15 A3010

Decode

TAF

Not found

Departure Runways

ID Width Length Bearing (true/mag) Surface Threshold Overrun Markings Lighting
02 148 ft / 45 m 8,324 ft / 2,537 m 10.66° / 17.54° ASPHALT 1,316 ft / 401 m 0 ft / 0 m APP
20 148 ft / 45 m 8,324 ft / 2,537 m 190.66° / 197.54° ASPHALT 1,012 ft / 308 m 0 ft / 0 m APP

SKCG

Details ICAO SKCG (CTG)
Name Rafael Nunez Intl
Region Colombia
Timezone America/Bogota (UTC-5.0)
Stats Elevation 1 ft / 0 m (AMSL)
Location 10.441700° -75.512900°
Runways 1
Magnetic Variation 7.524° W

METAR

SKCG 261600Z 36012KT 300V360 9999 FEW015TCU SCT200 33/27 A2979 RMK TCU/SE

Decode

TAF

TAF SKCG 261030Z 2612/2712 04004KT 9999 FEW017 SCT090 BECMG 2615/2617 31014KT TEMPO 2617/2620 TS FEW017CB BECMG 2704/2706 04005KT TX33/2618Z TN26/2711Z

Decode

Destination Runways

ID Width Length Bearing (true/mag) Surface Threshold Overrun Markings Lighting
01 148 ft / 45 m 7,849 ft / 2,392 m 2.32° / 9.85° ASPHALT 0 ft / 0 m 0 ft / 0 m PREC-APP EDGE THRESHOLD REIL-OMNI
19 148 ft / 45 m 7,849 ft / 2,392 m 182.32° / 189.85° ASPHALT 0 ft / 0 m 0 ft / 0 m PREC-APP EDGE THRESHOLD REIL-OMNI

Popular Alternatives